ROMMA est une association bénévole à but non lucratif. Votre soutien est indispensable : ADHERER à ROMMA ou FAIRE un DON

Granges-lès-Beaumont - (26, Drôme)

Drôme des Collines (155 m)   Longitude: 04°58'E   Latitude: 45°03'N Station partenaire n°123
 

Détail journalier du     <<     >>

Température Precipitation Humidité Pression Vent Dir Rafale Dir. rafale Ensol.
Heure (°C) (mm) (%) (hPa) (km/h) (km/h) (min)
01:00 7.90.29310211---6NNE0
02:00 7.809310212NNE6NNE0
03:00 7.109210217NNO11NNO0
04:00 6.309210205N11NNO0
05:00 5.809210207NNO13NNO0
06:00 5.109310202NE6N0
07:00 4.309310203NE6NE0
08:00 3.509410202O6O0
09:00 4.609510201N10NNO30
10:00 6.109410202E10E20
11:00 9.208610205ONO13ONO50
12:00 10.108310198NO18NNO50
13:00 10.807910189ONO18NO60
14:00 10.407910177NO16NO50
15:00 10.207910174NNO11ONO0
16:00 10.008010163O8ONO0
17:00 9.3085101600---0
18:00 7.8091101603OSO0
19:00 7.909110151OSO5OSO0
20:00 8.109210152---13E0
21:00 8.409010158ENE16ENE0
22:00 8.608810157ENE15ENE0
23:00 8.4089101410ENE19ENE0
minuit 8.7087101411ENE19ENE0

Graphique du 30-11-2019

 

Serveur OMMA